Showing default

ERS 6, 608

Orbit data source: Space-Track

ERS 6, 608 is a payload satellite owned by USAF SSD (US) in LEO that was launched on Thu, 09 May 1963 UTC via an ATLAS AGENA B launch vehicle from the Air Force Western Test Range (AFWTR). Payload-class satellites include a variety of spacecraft equipped with specific instruments for various scientific and technological missions. These include communications satellites like Starlink; space stations such as the ISS; scientific satellites like the Hubble; Earth observation satellites from companies like Planet Labs, Umbra, and HawkEye 360; GPS; miniature CubeSats for education and research; and military/defense satellites.

Loading next visibility...
Identifier
608, 1963-014C
Orbit
LEO
Country
Flag of USUS
Related business
Manufacturer
TRW
Mission
Spacecraft
Bus & Motor
TRS, Unknown motor
Mass
1 kg wet, 1 kg dry
Launch date (UTC)
1963-05-09 (62 years ago)
Launch vehicle
ATLAS AGENA B
Launch site
Air Force Western Test Range (AFWTR)
Object type
Payload
Rocket body
Debris
Shape & HBR
Unknown
Radar Cross Section
Medium (>0.1 m² and <1 m²)

Expand to show TLE details & history
Last TLE update: 2 days ago

TLE from 2 days ago
0 ERS 6
1 00608U 63014C   25287.79209174 -.00000016  00000-0 -88301-2 0  9992
2 00608  87.3442 216.5481 0039738 258.2039 101.4356  8.65285210972274
Epoch: 2025-10-14T19:00Z
TLE epoch observation values (Epoch: 2025-10-14T19:00:36.726Z)
Latitude
-0.00004°
Longitude
-92.18037°
Altitude
3,654.281 km
Speed
6.301 km/s
True Right ascension
14h 26m 11s
True Declination
0° 00' 00"
Sunlit
Object was in daylight at epoch
Visualization orbit readout
Latitude
Unknown
Longitude
Unknown
Altitude
Unknown
Speed
Unknown
Apparent Right ascension
Unknown
Apparent Declination
Unknown
Sunlit
N/A
Visualization observer readout
Local Sidereal Time
05:01:32
Azimuth
Unknown
Elevation
Unknown
Doppler factor
Unknown
Orbital elements
Apogee altitude
3,681.687 km
Perigee altitude
3,602.052 km
Semi-major axis
10,020.006 km
Eccentricity
0.00397
Inclination
87.3442°
RAAN
216.5481°
Arg. of periapsis
258.2039°
True anomaly
101.88148°
Mean anomaly
101.4356°
Eccentric anomaly
101.65858°
Mean motion
2.16392 °/min
Orbital period
166.36 mins
BSTAR
-0.0088301
Loading maneuver chart data...
Computing Atmospheric mass density...

Documentation

Showing up to 5 results
|